logo
Search for airport 
image banner adimage banner adimage banner ad
image banner ad

EHS042 - Kootwijkerbroek

Located in , Netherlands

ICAO - , IATA -

Data provided by Airmate  

General information

Coordinates: N52°8'51" E5°39'2"
Elevation is 45 feet MSL.
 
View others Airports in Gelderland

Operational data

Special qualification required
Current time UTC:
Current local time:
Weather at : EHDL - Deelen ( 18 km )
METAR: EHDL 151025Z AUTO 20014KT 150V280 9999 SCT028 OVC031 11/04 Q1004 BLU
View NOTAMs / SUP AIP / TFR affecting this airport [VIEW]
Communications frequencies: [VIEW]

Runways:

Airport contact information

Address: Netherlands

Satellite view of EHS042